GEFSMW_500_meanwind_336.txt.gz
Wind_Speed
11 10 10 11 11 10 10 9 9 9 9 9 8 9 10 10 10 10 10 10 10 9 9 9 9 9 9 9 8 8 8 8 9 9 9 9 8 8 9 9 9 10 11
11 11 11 11 12 11 11 10 10 9 9 10 10 10 10 11 11 11 11 11 10 10 10 10 10 9 9 9 9 9 9 9 8 9 9 8 8 8 8 9 10 10 11
11 12 12 12 12 12 11 11 11 11 10 11 11 11 12 11 11 11 11 11 11 11 10 11 11 11 10 11 11 10 10 9 9 9 9 9 9 9 9 10 10 10 11
12 13 13 13 13 12 12 11 11 12 12 11 11 11 11 11 11 11 11 12 12 11 11 11 11 11 12 12 12 11 11 11 10 10 10 10 10 10 10 10 11 11 12
14 13 14 14 14 13 12 12 12 12 12 12 11 11 11 12 12 12 12 12 12 12 12 11 11 11 12 12 12 11 12 12 11 11 11 11 11 11 11 11 12 12 12
16 15 14 15 14 14 14 14 13 13 12 12 12 12 13 13 13 13 14 13 13 13 13 12 12 12 12 12 12 11 11 12 12 12 11 12 12 12 12 12 12 13 13
18 17 16 15 15 16 16 15 15 14 14 14 14 14 14 14 14 14 14 14 14 14 14 13 13 13 13 12 12 12 12 12 12 12 12 12 13 13 13 13 13 13 14
18 19 17 16 16 16 17 17 16 16 15 15 15 15 15 16 16 16 16 15 15 15 15 15 15 14 14 13 13 13 13 13 13 14 14 14 14 15 15 15 15 15 15
19 19 18 18 18 18 18 18 17 17 17 17 16 16 16 16 17 17 17 16 16 15 15 16 16 16 16 15 15 15 15 15 15 15 15 16 16 17 17 17 16 17 17
19 19 20 20 20 20 19 18 18 18 18 18 17 17 16 16 17 17 17 17 16 16 16 16 16 17 17 18 17 17 17 18 17 17 17 17 17 18 19 19 18 18 19
21 21 21 21 20 20 19 19 19 19 19 19 18 18 17 17 17 17 17 17 17 17 17 17 17 17 18 18 19 19 19 19 19 19 19 19 19 19 19 20 19 20 19
20 21 20 21 21 21 20 19 20 20 20 20 19 19 19 18 18 17 17 18 18 18 18 18 18 18 18 19 20 21 21 20 20 20 21 21 21 20 20 21 21 21 21
21 21 22 21 21 21 21 21 21 21 21 21 20 21 20 19 19 19 19 19 19 19 19 19 19 19 18 19 20 20 21 21 21 21 22 22 22 22 22 22 22 22 23
22 23 22 22 22 22 22 21 21 22 21 21 21 21 21 20 21 20 20 20 20 20 20 20 20 20 20 20 20 20 20 21 21 21 22 22 22 23 23 23 23 22 23
22 23 22 22 23 23 23 23 23 23 22 22 22 22 21 21 22 22 22 21 22 22 21 21 22 21 21 20 20 20 20 21 21 21 22 22 22 22 22 22 22 22 22
23 24 23 23 23 24 23 24 24 24 23 23 23 23 23 23 23 23 23 23 23 23 22 22 23 23 22 22 21 21 21 21 21 22 22 23 22 23 23 23 23 23 23
25 24 24 24 24 23 24 24 24 24 24 24 24 24 24 24 24 24 24 24 24 24 24 23 22 22 22 22 21 21 21 21 21 22 22 23 23 23 24 24 24 24 25
25 25 25 24 24 25 25 25 25 25 25 25 25 25 25 25 25 25 25 25 25 24 24 23 23 22 22 22 22 22 22 21 21 21 22 23 23 24 24 25 25 25 26
26 26 25 24 25 24 24 25 25 25 25 25 25 26 26 26 26 26 26 26 26 25 25 24 24 23 23 22 22 22 23 23 23 23 24 25 25 25 26 27 27 27 27
27 28 27 26 26 26 26 27 26 26 26 25 25 26 26 26 26 26 26 26 26 26 25 25 24 24 23 23 23 23 24 24 24 24 25 26 26 26 26 27 27 27 27
28 29 28 28 27 26 27 27 26 26 27 27 27 26 26 26 26 26 26 26 25 25 25 25 25 24 24 24 24 25 25 25 25 25 26 27 26 25 25 26 26 26 26
29 30 30 28 27 27 27 27 27 26 26 26 26 25 25 25 25 25 25 25 25 25 25 25 25 24 24 25 25 25 26 26 26 26 26 26 25 25 24 24 24 23 23
30 29 29 28 28 27 27 26 26 27 27 26 26 26 25 24 24 25 25 26 25 25 25 25 25 25 25 25 25 25 24 25 25 25 25 25 24 24 24 24 23 23 23
30 30 29 28 28 27 27 27 27 27 27 27 27 27 26 25 25 26 26 26 26 26 26 26 26 25 25 25 24 24 24 24 25 24 24 24 23 24 24 24 24 24 23
29 29 29 29 29 28 27 27 27 27 27 26 26 26 25 25 25 25 25 26 27 27 26 26 26 25 25 25 25 25 25 26 25 24 24 24 23 23 24 24 24 24 24
29 28 29 29 29 28 28 27 27 27 26 26 26 25 25 25 26 25 26 26 26 27 27 26 26 25 25 25 25 25 25 25 24 24 23 23 22 23 23 23 23 24 24

GEFSMW_500_meanwind_342.txt.gz
Wind_Speed
9 9 8 8 8 7 7 7 8 8 8 9 9 9 9 9 9 9 9 9 9 9 9 8 8 8 8 8 8 8 8 8 8 8 8 9 9 10 9 9 9 10 10
10 9 8 8 8 7 7 8 8 9 9 9 9 9 9 10 10 10 10 9 9 10 10 9 9 9 9 8 9 9 9 9 9 9 9 9 9 10 10 10 10 10 10
10 9 8 8 9 9 9 8 9 9 10 9 9 9 10 10 11 11 10 10 10 9 9 9 10 9 9 9 10 10 10 10 10 10 10 10 10 10 10 10 10 11 12
12 11 10 10 10 10 10 9 9 9 10 10 10 10 10 11 11 11 11 11 11 11 10 10 10 10 10 10 10 10 10 10 10 11 10 10 10 10 11 11 11 12 13
14 13 12 11 11 11 11 11 11 10 11 12 12 11 11 11 11 12 12 11 11 12 12 11 11 10 11 10 10 10 10 10 10 10 10 11 11 11 11 11 12 12 13
15 14 14 13 13 12 12 12 12 12 12 13 13 12 12 12 12 12 12 12 13 13 13 13 13 12 11 11 11 10 10 11 11 11 11 12 12 12 12 12 13 14 14
17 16 15 15 14 13 13 13 14 14 14 14 14 13 14 14 13 13 14 14 14 14 14 14 14 13 13 12 12 12 12 12 13 12 12 13 13 13 13 14 14 15 16
18 17 17 16 16 15 15 15 15 15 15 15 15 15 15 15 15 15 15 15 15 14 14 14 14 14 14 14 13 13 14 14 14 14 13 14 14 14 14 15 16 16 17
18 18 17 17 17 17 17 16 16 16 17 16 17 17 16 16 16 16 16 16 16 15 15 15 15 15 15 14 14 14 15 15 15 15 16 16 16 15 16 16 17 18 18
19 19 19 18 19 20 20 19 19 18 19 19 19 18 18 17 17 17 17 16 16 16 16 16 16 16 16 16 15 15 15 16 16 16 17 17 18 18 18 19 19 19 20
21 20 21 21 21 22 22 22 20 19 20 20 20 19 20 19 19 18 18 17 17 17 17 17 17 17 17 17 17 16 17 17 17 18 18 18 19 20 21 21 21 21 21
22 21 20 21 22 21 21 22 21 21 22 22 21 21 21 20 20 19 19 18 18 18 18 19 18 18 18 19 19 18 18 19 19 20 20 20 21 21 21 21 22 23 23
23 23 22 22 22 23 23 22 22 23 23 23 22 21 21 20 20 20 20 20 20 20 19 19 19 19 19 20 20 20 20 20 21 21 21 21 21 22 22 22 22 23 24
23 24 23 22 22 24 24 23 23 23 23 22 23 22 21 20 20 21 22 21 21 21 20 20 20 20 20 20 21 21 21 21 22 22 22 21 22 22 22 22 23 24 24
23 24 23 22 22 22 22 23 23 23 23 23 23 23 22 21 21 22 22 22 22 21 21 21 21 21 21 21 20 21 21 21 21 21 21 21 22 22 22 22 23 24 24
25 25 24 23 24 23 23 24 24 23 23 23 23 24 23 23 23 23 23 23 23 22 22 22 22 22 22 21 21 21 21 21 21 21 21 21 22 22 22 23 23 23 24
26 25 24 24 24 24 25 25 25 24 24 24 23 24 24 24 24 23 23 24 24 23 23 23 23 23 23 22 22 22 22 22 21 21 21 21 22 23 23 24 24 24 24
25 25 24 25 25 26 26 25 25 26 26 25 25 25 26 26 26 25 24 25 25 24 23 23 23 24 23 24 23 23 23 22 22 23 23 23 22 23 24 25 25 25 25
26 26 26 25 24 24 24 25 26 27 27 26 26 27 27 26 26 27 27 26 26 25 25 24 24 25 24 24 24 23 23 23 24 25 24 24 25 25 25 26 26 26 26
27 27 27 27 26 25 24 24 25 26 27 27 26 27 26 26 26 27 27 26 25 26 26 26 26 25 24 25 25 24 24 24 25 25 26 26 26 26 27 27 27 26 26
28 28 28 27 28 28 27 26 26 26 27 27 26 25 25 25 25 26 26 26 26 26 27 27 27 27 25 25 24 25 26 26 26 26 26 26 26 27 27 27 26 26 27
28 29 28 28 28 28 28 27 26 25 25 26 26 25 25 25 25 26 26 26 26 27 27 28 27 27 27 26 26 25 26 26 27 27 26 26 26 26 26 26 26 26 26
28 29 29 29 28 28 28 28 27 26 25 25 25 25 25 25 25 25 26 26 26 27 27 26 26 27 27 27 27 27 27 27 27 27 27 26 26 26 26 26 26 26 26
29 30 30 30 29 28 27 27 27 26 26 26 25 25 25 25 25 24 24 25 25 26 26 26 25 25 26 26 27 27 27 27 27 27 26 27 27 27 27 26 26 26 25
30 30 29 28 28 27 27 26 26 26 26 25 25 26 26 25 24 24 24 24 25 25 25 25 25 25 25 25 27 28 28 27 27 27 27 27 27 27 26 26 26 26 26
28 29 29 28 28 27 27 27 26 26 26 26 26 26 25 25 25 25 25 25 25 25 25 25 26 26 26 27 27 28 28 28 28 27 27 26 26 25 26 26 26 26 26

GEFSMW_500_meanwind_348.txt.gz
Wind_Speed
12 12 11 10 10 10 10 9 9 8 8 7 7 8 8 8 8 8 8 9 9 9 9 9 9 8 8 8 8 9 9 9 9 8 8 8 9 9 9 10 10 10 10
13 13 12 11 11 11 10 10 9 9 9 8 8 8 8 9 10 10 10 10 10 11 9 9 9 9 9 9 9 9 9 9 9 9 9 8 9 10 10 11 11 11 11
15 14 14 12 12 11 11 11 10 9 9 10 9 9 10 10 11 11 11 11 10 10 9 10 10 11 11 11 10 10 10 10 10 10 10 10 10 10 11 11 11 11 12
16 16 15 14 13 13 13 12 11 11 11 11 11 11 11 11 12 12 11 11 11 11 11 11 10 11 11 12 12 11 10 10 10 11 11 11 11 11 11 11 12 12 12
17 17 17 17 16 15 15 14 13 13 13 13 13 12 12 12 12 12 12 11 11 11 12 11 11 11 11 11 12 12 11 11 11 11 12 11 11 11 12 12 13 13 14
18 18 19 19 18 17 16 16 15 15 15 15 15 14 14 13 13 13 12 12 12 13 13 13 12 12 12 12 12 12 12 11 11 12 12 12 13 13 13 14 14 14 15
19 19 20 20 19 19 18 18 17 17 16 16 16 16 15 15 14 13 13 13 13 13 13 13 13 13 13 13 12 12 12 12 12 12 13 13 14 15 15 16 16 16 16
19 19 20 21 21 20 20 19 19 18 18 18 18 17 17 17 16 15 15 15 15 15 14 14 14 14 14 14 13 13 13 13 14 14 14 14 15 16 16 17 17 18 17
19 19 20 21 21 21 20 20 20 20 20 19 19 19 19 19 18 17 17 17 17 16 16 16 16 16 15 15 15 14 14 15 15 15 16 16 16 16 17 17 17 18 19
19 19 20 21 20 21 21 21 21 21 20 21 21 21 22 21 20 19 18 18 18 18 17 18 18 17 17 17 17 17 17 17 17 17 17 17 18 18 18 18 19 20 20
19 20 21 21 22 21 22 22 22 22 23 23 23 23 23 22 22 21 20 20 20 19 19 19 18 18 18 19 18 18 18 19 19 19 19 19 18 18 19 20 20 20 20
21 21 22 22 23 23 23 24 24 24 24 24 24 24 23 23 23 23 22 22 21 20 20 19 19 19 19 19 19 20 20 20 20 20 20 20 20 20 20 20 20 21 21
22 23 24 25 24 24 24 24 25 25 26 26 26 25 25 24 25 25 25 24 23 22 21 21 20 20 20 20 20 20 21 21 20 20 21 21 21 21 21 21 21 21 22
23 24 24 25 25 26 25 25 25 26 26 26 26 26 26 26 26 25 25 24 24 23 22 21 21 21 21 21 21 22 22 21 21 21 21 21 21 21 22 22 22 22 22
24 24 25 25 26 27 26 26 26 26 27 27 26 26 26 26 26 25 24 24 24 23 23 22 22 22 22 22 22 23 22 22 23 22 22 22 22 23 22 22 22 22 23
26 26 26 26 26 26 27 27 27 27 27 27 27 27 26 26 26 25 24 24 24 23 23 23 23 24 23 23 23 24 23 23 23 23 23 23 23 23 23 22 22 23 24
27 27 27 27 26 26 26 27 26 27 27 27 27 27 27 26 25 25 25 25 24 24 23 23 23 24 23 23 23 24 24 24 24 24 23 24 23 23 23 23 24 24 25
28 27 27 27 27 27 26 26 27 27 27 27 28 28 27 26 26 26 25 25 25 24 24 24 25 24 24 24 24 24 25 25 25 25 24 24 24 24 24 23 24 25 25
27 28 28 28 27 27 27 26 27 28 28 28 28 29 28 26 26 26 25 25 25 26 25 25 26 26 25 25 25 26 25 25 25 26 25 25 25 25 25 24 24 25 25
27 27 27 28 27 27 28 27 26 26 26 27 27 28 27 27 26 26 26 25 25 25 25 25 26 26 27 27 27 27 26 25 25 25 25 26 26 26 26 25 25 25 26
27 27 27 27 27 27 28 28 27 26 27 27 27 27 27 27 27 26 26 26 26 26 26 26 25 26 26 26 26 26 26 26 25 25 25 26 26 26 26 26 26 26 27
26 26 26 26 27 27 27 28 28 27 27 27 26 27 27 28 27 27 26 26 26 26 25 25 25 25 25 26 26 26 26 26 25 25 25 26 26 26 26 27 27 27 27
26 26 26 26 26 27 27 27 27 27 27 26 26 25 26 27 27 26 26 25 25 25 25 24 24 24 24 25 26 27 27 26 26 26 26 27 27 27 26 27 27 27 27
27 27 27 27 26 26 26 26 26 26 26 26 25 25 25 25 26 26 25 25 26 26 25 25 24 24 25 25 25 26 27 28 27 27 26 27 27 27 27 27 27 27 27
28 28 28 27 26 25 25 25 25 25 25 25 25 25 25 26 26 26 26 25 25 25 25 25 25 26 26 26 26 25 26 27 27 27 27 28 28 28 27 26 25 25 25
27 27 27 26 25 25 26 26 25 25 25 24 25 25 25 26 26 26 26 26 26 26 26 26 26 26 26 26 26 26 26 26 27 27 27 28 27 27 27 26 25 25 25

GEFSMW_500_meanwind_354.txt.gz
Wind_Speed
16 15 14 13 12 11 11 11 11 11 11 11 11 11 11 11 10 10 10 11 11 11 10 10 9 9 10 10 9 10 10 9 9 9 9 9 8 8 8 9 9 9 8
16 16 15 15 14 12 12 12 11 10 11 11 12 12 11 11 12 12 12 12 12 12 11 11 10 11 11 10 10 10 10 10 10 9 9 9 9 9 9 9 9 9 9
18 17 16 15 14 14 14 14 13 13 12 12 13 13 12 13 13 13 13 12 12 12 13 13 12 12 11 11 11 11 11 10 10 10 10 10 9 9 9 9 10 10 10
20 18 17 17 16 16 15 15 15 14 14 14 14 14 14 14 14 13 13 13 14 14 13 13 13 12 12 12 12 11 11 11 11 11 11 11 10 10 10 10 11 11 11
22 20 19 18 18 17 17 17 17 17 16 16 15 15 15 15 15 14 14 15 15 15 15 14 14 13 13 13 12 12 12 12 11 11 11 11 11 11 11 12 12 12 12
22 21 20 20 20 19 18 18 18 18 18 17 17 16 16 16 16 16 16 16 16 16 16 15 15 15 14 13 13 13 13 12 12 12 12 12 12 12 12 13 13 14 13
22 22 22 21 21 20 19 19 19 19 19 19 19 18 18 18 18 17 17 17 17 17 17 17 17 16 15 15 15 15 14 14 14 13 14 14 14 14 14 15 15 15 15
22 22 22 20 21 21 21 21 20 20 20 20 20 20 20 20 19 19 19 19 18 18 18 19 18 17 17 16 16 16 16 16 16 16 15 16 16 16 17 17 17 17 17
22 23 23 21 21 21 21 21 20 21 21 21 21 21 21 21 21 21 21 21 19 19 19 20 19 18 18 18 17 17 18 18 18 18 17 18 18 18 18 18 18 18 19
23 24 23 22 21 20 20 21 21 21 22 22 22 22 22 22 22 22 23 22 21 21 22 21 20 19 19 19 19 19 19 19 19 19 19 19 19 19 19 19 18 19 19
25 24 24 23 21 21 21 22 22 23 23 23 23 23 23 23 23 24 23 23 22 22 22 22 22 21 20 20 21 21 20 21 21 21 20 20 19 19 19 19 20 20 21
26 26 25 25 24 23 23 23 23 24 24 24 24 24 24 24 24 24 24 24 24 24 23 23 23 22 22 22 22 22 22 22 22 22 21 21 20 20 20 21 21 21 20
27 28 27 26 26 26 25 24 24 25 25 25 25 25 25 25 25 25 25 25 25 25 25 24 24 24 24 24 24 24 24 24 23 23 23 22 22 21 22 22 21 21 22
29 29 29 29 28 28 26 25 26 26 26 26 26 26 26 26 27 27 27 27 26 26 26 25 25 25 24 24 25 24 24 24 24 24 24 24 23 23 23 23 22 22 22
29 29 30 29 29 29 28 28 27 27 27 27 27 27 27 28 28 28 28 27 27 27 27 26 26 26 26 26 25 25 25 25 24 24 25 25 24 24 24 23 23 23 23
29 30 30 31 29 28 27 27 28 28 27 28 28 29 29 28 28 28 28 28 28 27 27 27 27 27 27 27 27 26 25 24 24 24 25 25 25 25 25 24 25 25 24
30 30 30 31 31 30 27 28 29 29 29 29 29 29 29 29 28 28 29 28 28 28 27 27 27 27 26 26 26 26 25 24 24 24 24 23 23 24 24 25 25 25 25
30 30 30 30 30 29 29 28 28 29 29 29 29 30 30 30 30 29 29 28 28 28 27 27 27 27 26 25 24 24 24 24 24 24 24 24 23 24 24 25 25 25 25
29 30 30 29 29 29 29 28 28 28 28 28 28 29 30 30 30 30 29 29 29 28 27 27 27 26 26 25 25 24 24 23 23 23 24 23 23 23 24 24 24 24 24
30 30 29 29 28 28 29 28 29 29 28 28 28 29 30 30 30 30 30 30 29 29 28 28 27 26 26 26 25 25 24 24 24 24 24 24 24 23 24 23 23 23 23
30 30 29 28 28 28 28 28 28 28 27 28 28 29 30 29 29 30 30 30 30 29 29 29 27 27 26 26 26 24 24 24 24 24 23 23 24 24 24 24 24 24 25
29 29 29 28 27 27 27 28 27 27 27 27 28 28 28 28 29 29 30 30 30 30 29 28 28 28 27 27 26 25 25 24 24 24 23 23 24 24 25 25 25 25 26
27 27 27 27 26 26 26 26 26 27 27 27 27 28 28 27 27 28 29 29 28 28 29 29 29 29 28 28 27 26 25 24 24 24 24 24 24 24 24 24 24 24 25
27 26 26 25 25 25 25 25 24 25 26 26 26 27 27 26 26 26 27 28 27 27 28 29 29 28 28 27 27 26 25 25 25 24 24 24 24 24 24 23 23 24 25
26 26 25 25 26 26 26 25 24 25 25 25 26 26 26 26 26 26 26 27 27 27 28 28 28 28 27 26 26 26 26 26 25 25 25 25 25 25 25 25 25 25 25
27 26 26 26 25 26 26 25 25 25 25 25 25 25 25 25 25 25 26 26 27 27 27 28 28 27 27 26 26 26 26 26 26 27 27 26 26 26 26 26 26 26 27